Kosmos-2478

operational
NORAD ID: 37938 Int'l Des: 2011-071 Owner: KVR/IACG Country: RU Constellation: GLONASS
MEOCIRCULAR

Kosmos-2478について

説明を読み込み中...

リアルタイム位置

3D地球を読み込み中...

次回通過

高度履歴

Altitude vs Time

uPlot chart will show altitude changes over time

軌道要素

1 37938U 11071A 26033.50284759 -.00000065 00000-0 00000+0 0 9995
2 37938 65.5408 319.4115 0016592 223.2417 350.7389 2.13015523110276
Epoch: Feb 2, 2026 • Age: 33 hours

現在のステータス

高度 19102.9 km
速度 3.96 km/s
衛星直下点 -21.21°S, 52.36°E
打ち上げ日 Nov 28, 2011
運用期間 14.1 years
タイプ other

技術仕様

分類 Payload
質量 1450.00 kg
乾燥質量 1200.00 kg
総質量 1450.00 kg
長さ 4.00 m
直径 1.50 m
スパン 7.80 m
形状 Cyl + Ant + 2 Pan
製造者 RESH
バスタイプ Uragan
フェーズステータス In Orbit
所有者/国 KVR/IACG/RU

大規模コンステレーション

Loading constellations...